User: anonymous   Login
Location: Unspecified
(0.0000°N, 0.0000°E)
Time: 05:19:52
(UTC+02:00)
Language:

YAOGAN 1 - Orbit

View from above orbital plane
View from above orbital plane
View from above satellite
View from above satellite

Ground track
Ground track

The orbit data is extracted from the following two-line orbital elements,

1 29092U 06015A   16145.55745154  .00000133  00000-0  23181-4 0  9993
2 29092  98.0044 150.4939 0001457  88.7631 271.3749 14.82658702544773
Epoch (UTC): 24 May 2016 13:22:43
Eccentricity: 0.0001457
inclination: 98.0044°
perigee height: 620 km
apogee height: 622 km
right ascension of ascending node: 150.4939°
argument of perigee: 88.7631°
revolutions per day: 14.82658702
mean anomaly at epoch: 271.3749°
orbit number at epoch: 54477

The dashed part of the orbit path shows where the satellite is in the earth's shadow,  

DLR